Charles City, IA

2:09 PM CST on February 21, 2018 (GMT -0600)
Charles City Municipal

Weather History for KCCY - October, 2013

Change the Weather History Date:

Friday, October 11, 2013

  Actual Average Record
Temperature  
Mean Temperature 64 °F -  
Max Temperature 75 °F 63 °F 82 °F (1989)
Min Temperature 53 °F 39 °F 16 °F (1987)
Degree Days  
Heating Degree Days 1    
Growing Degree Days 14 (Base 50)    
Moisture  
Dew Point 53 °F    
Average Humidity 67    
Maximum Humidity 94    
Minimum Humidity 44    
Precipitation  
Precipitation 0.01 in - - ()
Sea Level Pressure  
Sea Level Pressure 29.84 in    
Wind  
Wind Speed 15 mph (SSE)    
Max Wind Speed 29 mph    
Max Gust Speed 39 mph    
Visibility 10 miles    
Events      
Averages and records for this station are not official NWS values.
T = Trace of Precipitation, MM = Missing Value Source: NWS Daily Summary

Daily Weather History Graph

Daily Weather History Graph

Search for Another Location

Airport or City:

Trip Planner

Search our weather history database for the weather conditions in past years. The results will help you decide how hot, cold, wet, or windy it might be!

Date:

Astronomy

Oct. 11, 2013 Rise Set
Actual Time 7:19 AM CDT 6:33 PM CDT
Civil Twilight 6:51 AM CDT 7:02 PM CDT
Nautical Twilight 6:18 AM CDT 7:35 PM CDT
Astronomical Twilight 5:45 AM CDT 8:08 PM CDT
Moon 2:06 PM CDT (10/11) No Moon Set
Length of Visible Light 12h 11m
Length of Day
11h 14m
Waxing Crescent, 47% of the Moon is Illuminated
Oct 11
Waxing Crescent
Oct 11
First Quarter
Oct 18
Full
Oct 26
Last Quarter
Nov 3
New

Hourly Weather History & Observations

Time (CDT) Temp. Dew Point Humidity Pressure Visibility Wind Dir Wind Speed Gust Speed Precip Events Conditions
12:15 AM 57.2 °F 50.0 °F 77% 29.94 in 10.0 mi SE 10.4 mph - N/A   Clear
12:35 AM 57.2 °F 50.0 °F 77% 29.93 in 10.0 mi SE 11.5 mph - N/A   Clear
12:55 AM 57.2 °F 50.0 °F 77% 29.93 in 10.0 mi SE 10.4 mph - N/A   Clear
1:15 AM 57.2 °F 50.0 °F 77% 29.94 in 10.0 mi SE 10.4 mph - N/A   Clear
1:55 AM 57.2 °F 50.0 °F 77% 29.95 in 10.0 mi SE 11.5 mph - N/A   Clear
2:15 AM 55.4 °F 50.0 °F 82% 29.94 in 10.0 mi SE 10.4 mph - N/A   Clear
2:35 AM 55.4 °F 50.0 °F 82% 29.94 in 10.0 mi SE 11.5 mph - N/A   Clear
2:55 AM 55.4 °F 50.0 °F 82% 29.93 in 10.0 mi SE 11.5 mph - N/A   Clear
3:15 AM 55.4 °F 50.0 °F 82% 29.93 in 10.0 mi SE 12.7 mph - N/A   Clear
3:35 AM 55.4 °F 50.0 °F 82% 29.93 in 10.0 mi SE 12.7 mph - N/A   Clear
3:55 AM 55.4 °F 50.0 °F 82% 29.92 in 10.0 mi SE 12.7 mph - N/A   Clear
4:15 AM 55.4 °F 50.0 °F 82% 29.92 in 10.0 mi SE 13.8 mph - N/A   Clear
4:35 AM 55.4 °F 51.8 °F 88% 29.93 in 10.0 mi SE 13.8 mph - N/A   Clear
4:55 AM 55.4 °F 50.0 °F 82% 29.93 in 10.0 mi SE 12.7 mph - N/A   Clear
5:15 AM 55.4 °F 50.0 °F 82% 29.93 in 10.0 mi SE 11.5 mph - N/A   Clear
5:35 AM 55.4 °F 51.8 °F 88% 29.94 in 10.0 mi SE 9.2 mph - N/A   Clear
5:55 AM 53.6 °F 50.0 °F 88% 29.93 in 10.0 mi SE 9.2 mph - N/A   Clear
6:15 AM 53.6 °F 50.0 °F 88% 29.93 in 10.0 mi SE 11.5 mph - N/A   Clear
6:35 AM 53.6 °F 51.8 °F 94% 29.93 in 10.0 mi SE 11.5 mph - N/A   Clear
6:55 AM 53.6 °F 51.8 °F 94% 29.92 in 10.0 mi SE 11.5 mph - N/A   Clear
7:15 AM 53.6 °F 51.8 °F 94% 29.92 in 10.0 mi SE 13.8 mph - N/A   Clear
7:35 AM 53.6 °F 51.8 °F 94% 29.91 in 9.0 mi SE 11.5 mph - N/A   Clear
7:55 AM 55.4 °F 51.8 °F 88% 29.91 in 9.0 mi SE 11.5 mph - N/A   Clear
8:15 AM 55.4 °F 51.8 °F 88% 29.91 in 10.0 mi SE 12.7 mph - N/A   Clear
8:35 AM 57.2 °F 51.8 °F 82% 29.90 in 10.0 mi SE 16.1 mph 23.0 mph N/A   Clear
8:55 AM 57.2 °F 53.6 °F 88% 29.89 in 10.0 mi SE 17.3 mph - N/A   Clear
9:15 AM 59.0 °F 53.6 °F 82% 29.90 in 10.0 mi SE 13.8 mph 25.3 mph N/A   Clear
9:35 AM 60.8 °F 53.6 °F 77% 29.88 in 10.0 mi SE 18.4 mph - N/A   Clear
9:55 AM 62.6 °F 55.4 °F 77% 29.87 in 10.0 mi SSE 21.9 mph 27.6 mph N/A   Clear
10:15 AM 64.4 °F 55.4 °F 73% 29.86 in 10.0 mi SE 20.7 mph 28.8 mph N/A   Clear
10:35 AM 66.2 °F 55.4 °F 68% 29.86 in 10.0 mi SE 21.9 mph 29.9 mph N/A   Clear
10:55 AM 68.0 °F 55.4 °F 64% 29.85 in 10.0 mi SE 19.6 mph 29.9 mph N/A   Clear
11:15 AM 69.8 °F 55.4 °F 60% 29.84 in 10.0 mi SSE 19.6 mph 27.6 mph N/A   Clear
11:35 AM 69.8 °F 55.4 °F 60% 29.84 in 10.0 mi SSE 21.9 mph 33.4 mph N/A   Clear
11:55 AM 71.6 °F 55.4 °F 57% 29.82 in 10.0 mi SSE 27.6 mph 38.0 mph N/A   Clear
12:15 PM 71.6 °F 55.4 °F 57% 29.83 in 10.0 mi SSE 23.0 mph 33.4 mph N/A   Clear
12:35 PM 73.4 °F 55.4 °F 53% 29.82 in 10.0 mi SSE 27.6 mph 36.8 mph N/A   Clear
12:55 PM 73.4 °F 55.4 °F 53% 29.81 in 10.0 mi SSE 24.2 mph 34.5 mph N/A   Clear
1:15 PM 73.4 °F 53.6 °F 50% 29.79 in 10.0 mi SE 23.0 mph 35.7 mph N/A   Clear
1:35 PM 75.2 °F 53.6 °F 47% 29.78 in 10.0 mi SSE 27.6 mph 38.0 mph N/A   Clear
1:55 PM 73.4 °F 50.0 °F 44% 29.76 in 10.0 mi SSE 27.6 mph 38.0 mph N/A   Partly Cloudy
2:15 PM 73.4 °F 51.8 °F 47% 29.77 in 10.0 mi SSE 23.0 mph 32.2 mph N/A   Partly Cloudy
2:35 PM 75.2 °F 51.8 °F 44% 29.76 in 10.0 mi SSE 25.3 mph 34.5 mph N/A   Clear
2:55 PM 73.4 °F 51.8 °F 47% 29.76 in 10.0 mi SSE 23.0 mph 31.1 mph N/A   Clear
3:15 PM 73.4 °F 51.8 °F 47% 29.76 in 10.0 mi SSE 27.6 mph 39.1 mph N/A   Clear
3:35 PM 75.2 °F 51.8 °F 44% 29.76 in 10.0 mi SSE 28.8 mph 35.7 mph N/A   Scattered Clouds
3:55 PM 73.4 °F 51.8 °F 47% 29.76 in 10.0 mi SSE 21.9 mph 36.8 mph N/A   Overcast
4:15 PM 73.4 °F 51.8 °F 47% 29.76 in 10.0 mi SSE 18.4 mph 28.8 mph N/A   Overcast
4:35 PM 73.4 °F 51.8 °F 47% 29.75 in 10.0 mi SSE 18.4 mph 24.2 mph N/A   Overcast
4:55 PM 73.4 °F 51.8 °F 47% 29.74 in 10.0 mi SSE 23.0 mph 33.4 mph N/A   Overcast
5:15 PM 73.4 °F 51.8 °F 47% 29.75 in 10.0 mi SSE 19.6 mph 33.4 mph N/A   Overcast
5:35 PM 73.4 °F 51.8 °F 47% 29.75 in 10.0 mi SSE 19.6 mph 33.4 mph N/A   Overcast
5:55 PM 73.4 °F 51.8 °F 47% 29.76 in 10.0 mi SSE 16.1 mph 29.9 mph N/A   Overcast
6:15 PM 73.4 °F 51.8 °F 47% 29.76 in 10.0 mi SSE 17.3 mph 29.9 mph N/A   Overcast
6:35 PM 71.6 °F 53.6 °F 53% 29.77 in 10.0 mi SSE 16.1 mph 24.2 mph N/A   Overcast
6:55 PM 71.6 °F 53.6 °F 53% 29.77 in 10.0 mi SSE 12.7 mph 19.6 mph N/A   Overcast
7:15 PM 71.6 °F 53.6 °F 53% 29.77 in 10.0 mi SSE 13.8 mph 21.9 mph N/A   Overcast
7:35 PM 69.8 °F 53.6 °F 56% 29.78 in 10.0 mi SSE 12.7 mph - N/A   Overcast
7:55 PM 69.8 °F 53.6 °F 56% 29.78 in 10.0 mi South 12.7 mph - N/A   Overcast
8:15 PM 71.6 °F 53.6 °F 53% 29.78 in 10.0 mi South 15.0 mph 21.9 mph N/A   Overcast
8:35 PM 68.0 °F 57.2 °F 68% 29.79 in 10.0 mi South 8.1 mph - N/A   Overcast
8:55 PM 68.0 °F 55.4 °F 64% 29.79 in 10.0 mi South 11.5 mph 18.4 mph 0.01 in   Overcast
9:15 PM 68.0 °F 55.4 °F 64% 29.78 in 10.0 mi SSE 15.0 mph 23.0 mph N/A   Overcast
9:35 PM 68.0 °F 55.4 °F 64% 29.78 in 10.0 mi South 15.0 mph - N/A   Mostly Cloudy
9:55 PM 68.0 °F 55.4 °F 64% 29.78 in 10.0 mi SSE 15.0 mph 23.0 mph N/A   Mostly Cloudy
10:15 PM 68.0 °F 55.4 °F 64% 29.78 in 10.0 mi SSE 16.1 mph - N/A   Scattered Clouds
10:35 PM 68.0 °F 55.4 °F 64% 29.78 in 10.0 mi SSE 15.0 mph - N/A   Partly Cloudy
10:55 PM 66.2 °F 55.4 °F 68% 29.79 in 10.0 mi SSE 15.0 mph - N/A   Clear
11:15 PM 66.2 °F 55.4 °F 68% 29.79 in 10.0 mi SSE 15.0 mph - N/A   Clear
11:35 PM 66.2 °F 55.4 °F 68% 29.79 in 10.0 mi SSE 15.0 mph - N/A   Partly Cloudy
11:55 PM 66.2 °F 55.4 °F 68% 29.79 in 10.0 mi SSE 15.0 mph 20.7 mph N/A   Clear